Weather observations for the past three days for
Harrisonville Lawrence Smith Memorial Airport
Imperial (Metric)
Date Time (cdt) Wind (mph) Vis. (mi.) Weather Sky Cond. Temperature (ºF) Relative Humidity Wind Chill (°F) Heat Index (°F) Pressure Precipitation (in)
Air Dwpt 6 hour altimeter (in) sea level (mb) 1 hr 3 hr 6 hr
Max. Min.
18 02:55 NE 6 10.00 Fair CLR 69.8 59 69% 30.18 0.0
18 02:35 NE 7 10.00 Fair CLR 69.8 59 69% 30.18 0.0
18 02:15 NE 6 10.00 Fair CLR 69.8 59 69% 30.18 0.0
18 01:55 NE 6 10.00 Fair CLR 69.8 59 69% 30.18 0.0
18 01:35 NE 7 10.00 Fair CLR 71.6 59 65% 30.19 0.0
18 01:15 NE 6 10.00 Fair CLR 71.6 60.8 69% 30.19 0.0
18 00:55 NE 6 10.00 Partly Cloudy SCT080 71.6 60.8 69% 30.19 0.0
18 00:35 NE 5 10.00 Overcast OVC080 71.6 60.8 69% 30.19 0.0
18 00:15 NE 5 10.00 Overcast OVC080 71.6 62.6 73% 30.19 0.0
17 23:55 NE 5 10.00 Overcast OVC080 73.4 60.8 65% 30.18 0.0
17 23:35 NE 5 10.00 Overcast OVC080 73.4 60.8 65% 30.18 0.0
17 23:15 NE 5 10.00 Overcast OVC080 75.2 60.8 61% 77 30.17 0.0
17 22:55 NE 5 10.00 Overcast OVC080 75.2 62.6 65% 77 30.17 0.0
17 22:35 NE 5 10.00 Overcast OVC080 75.2 62.6 65% 77 30.16 0.0
17 22:15 NE 6 10.00 Overcast OVC070 75.2 62.6 65% 77 30.15 0.0
17 21:55 NE 6 10.00 Overcast OVC070 77 62.6 61% 79 30.15 0.0
17 21:35 NE 5 10.00 Partly Cloudy SCT070 75.2 62.6 65% 77 30.13 0.0
17 21:15 NE 6 10.00 Fair CLR 77 60.8 57% 79 30.13 0.0
17 20:55 NE 7 10.00 Fair CLR 77 60.8 57% 79 30.12 0.0
17 20:35 NE 3 10.00 Fair CLR 77 62.6 61% 79 30.11 0.0
17 20:15 E 5 10.00 Fair CLR 78.8 60.8 54% 80 30.1 0.0
17 19:55 NE 5 10.00 Fair CLR 80.6 60.8 51% 81 30.09 0.0
17 19:35 E 7 10.00 Fair CLR 82.4 62.6 51% 83 30.08 0.0
17 19:15 E 8 10.00 Fair CLR 82.4 62.6 51% 83 30.08 0.0
17 18:55 NE 7 10.00 Fair CLR 84.2 62.6 48% 85 30.08 0.0
17 18:35 NE 10 10.00 Partly Cloudy SCT050 84.2 62.6 48% 85 30.08 0.0
17 18:15 NE 7 10.00 Fair CLR 84.2 62.6 48% 85 30.07 0.0
17 17:55 NE 7 10.00 Fair CLR 86 62.6 46% 87 30.07 0.0
17 17:35 NE 8 10.00 Partly Cloudy SCT050 86 62.6 46% 87 30.07 0.0
17 17:15 NE 8 10.00 Partly Cloudy SCT050 86 62.6 46% 87 30.08 0.0
17 16:55 NE 12 G 16 10.00 Fair CLR 86 62.6 46% 87 30.08 0.0
17 16:35 NE 12 G 18 10.00 Partly Cloudy SCT048 86 62.6 46% 87 30.09 0.0
17 16:15 NE 7 G 16 7.00 Partly Cloudy SCT048 86 62.6 46% 87 30.09 0.0
17 15:55 NE 7 4.00 Partly Cloudy with Haze SCT050 86 62.6 46% 87 30.09 0.0
17 15:35 NE 13 G 17 10.00 Partly Cloudy SCT048 87.8 62.6 43% 88 30.1 0.0
17 15:15 NE 10 5.00 Partly Cloudy with Haze SCT002 SCT048 86 62.6 46% 87 30.11 0.0
17 14:55 NE 7 10.00 Partly Cloudy SCT048 86 62.6 46% 87 30.11 0.0
17 14:35 E 7 10.00 Partly Cloudy SCT048 86 62.6 46% 87 30.11 0.0
17 14:15 NE 9 10.00 Partly Cloudy SCT048 86 62.6 46% 87 30.11 0.0
17 13:55 NE 13 G 18 10.00 Partly Cloudy SCT046 86 60.8 43% 86 30.11 0.0
17 13:35 NE 7 5.00 Partly Cloudy with Haze SCT002 SCT046 86 62.6 46% 87 30.11 0.0
17 13:15 E 10 G 18 5.00 Partly Cloudy with Haze SCT002 SCT046 86 62.6 46% 87 30.1 0.0
17 12:55 NE 9 G 18 3.00 Partly Cloudy with Haze SCT002 86 60.8 43% 86 30.1 0.0
17 12:35 NE 12 G 16 4.00 Partly Cloudy with Haze SCT002 84.2 62.6 48% 85 30.1 0.0
17 12:15 NE 14 2.00 Partly Cloudy with Haze SCT002 84.2 62.6 48% 85 30.1 0.0
17 11:55 NE 10 G 17 5.00 Partly Cloudy with Haze SCT002 82.4 62.6 51% 83 30.09 0.0
17 11:35 NE 8 5.00 Partly Cloudy with Haze SCT002 82.4 64.4 55% 84 30.09 0.0
17 11:15 NE 13 5.00 Partly Cloudy with Haze SCT002 80.6 62.6 54% 82 30.09 0.0
17 10:55 NE 10 5.00 Partly Cloudy with Haze SCT002 80.6 62.6 54% 82 30.09 0.0
17 10:35 NE 12 5.00 Partly Cloudy with Haze SCT002 78.8 62.6 58% 80 30.09 0.0
17 10:15 NE 10 4.00 Partly Cloudy with Haze SCT002 78.8 64.4 61% 81 30.09 0.0
17 09:55 NE 12 7.00 Partly Cloudy SCT002 SCT085 77 64.4 65% 79 30.09 0.0
17 09:35 NE 8 5.00 Partly Cloudy with Haze SCT002 77 64.4 65% 79 30.1 0.0
17 09:15 E 6 7.00 Fair CLR 75.2 64.4 69% 77 30.11 0.0
17 08:55 NE 7 5.00 Partly Cloudy with Haze SCT002 SCT027 75.2 64.4 69% 77 30.11 0.0
17 08:35 E 3 7.00 Partly Cloudy SCT002 SCT025 73.4 64.4 74% 30.09 0.0
17 08:15 E 6 7.00 Partly Cloudy SCT022 73.4 64.4 74% 30.07 0.0
17 07:55 NE 6 7.00 Mostly Cloudy BKN022 71.6 64.4 78% 30.06 0.0
17 07:35 E 6 10.00 Fair CLR 69.8 64.4 83% 30.05 0.0
17 07:15 NE 7 10.00 Fair CLR 69.8 66.2 88% 30.04 0.0
17 06:55 NE 7 10.00 Fair CLR 69.8 66.2 88% 30.04 0.0
17 06:35 NE 3 10.00 Fair CLR 68 64.4 88% 30.04 0.0
17 06:15 NE 6 10.00 Fair CLR 68 64.4 88% 30.04 0.0
17 05:55 Calm 10.00 Fair CLR 69.8 64.4 83% 30.03 0.0
17 05:35 NE 3 10.00 Fair CLR 68 66.2 94% 30.01 0.0
17 05:15 NE 5 10.00 Fair CLR 69.8 66.2 88% 29.99 0.0
17 04:55 NE 3 10.00 Fair CLR 69.8 66.2 88% 29.99 0.0
17 04:35 NE 3 10.00 Fair CLR 69.8 66.2 88% 29.98 0.0
17 04:15 NE 6 10.00 Fair CLR 69.8 66.2 88% 29.98 0.0
17 03:55 NE 7 10.00 Fair CLR 69.8 66.2 88% 29.99 0.0
17 03:35 NE 6 10.00 Fair CLR 71.6 66.2 83% 29.98 0.0
17 03:15 NE 6 10.00 Fair CLR 71.6 68 88% 29.98 0.0
17 02:55 NE 6 10.00 Fair CLR 71.6 68 88% 29.98 0.0
17 02:35 NE 7 10.00 Fair CLR 71.6 68 88% 29.98 0.0
17 02:15 NE 7 10.00 Fair CLR 73.4 68 83% 29.99 0.0
17 01:55 NE 8 10.00 Fair CLR 73.4 69.8 89% 30 0.0
17 01:35 NE 7 10.00 Fair CLR 73.4 69.8 89% 29.99 0.0
17 01:15 NE 5 10.00 Fair CLR 73.4 69.8 89% 29.98 0.0
17 00:55 NE 8 10.00 Fair CLR 75.2 69.8 83% 75 29.98 0.0
17 00:35 NE 7 10.00 Fair CLR 75.2 71.6 89% 75 29.98 0.0
17 00:15 NE 8 10.00 Fair CLR 77 71.6 83% 78 29.98 0.0
16 23:55 NE 6 10.00 Fair CLR 77 71.6 83% 78 29.98 0.0
16 23:35 NE 8 10.00 Fair CLR 77 71.6 83% 78 29.97 0.0
16 23:15 NE 8 10.00 Fair CLR 77 71.6 83% 78 29.97 0.0
16 22:55 NE 5 10.00 Fair CLR 78.8 71.6 79% 82 29.97 0.0
16 22:35 NE 7 10.00 Fair CLR 78.8 71.6 79% 82 29.97 0.0
16 22:15 N 3 10.00 Fair CLR 78.8 71.6 79% 82 29.95 0.0
16 21:55 N 3 10.00 Fair CLR 78.8 71.6 79% 82 29.95 0.0
16 21:35 N 5 10.00 Fair CLR 78.8 71.6 79% 82 29.93 0.0
16 21:15 N 3 10.00 Fair CLR 78.8 71.6 79% 82 29.93 0.0
16 20:55 Calm 10.00 Fair CLR 80.6 71.6 74% 85 29.91 0.0
16 20:35 Calm 10.00 Fair CLR 82.4 71.6 70% 87 29.92 0.0
16 20:15 N 3 10.00 Fair CLR 82.4 71.6 70% 87 29.92 0.0
16 19:55 Calm 10.00 Fair CLR 84.2 71.6 66% 90 29.92 0.0
16 19:35 NW 3 10.00 Fair CLR 86 71.6 62% 92 29.92 0.0
16 19:15 Calm 10.00 Fair CLR 86 71.6 62% 92 29.93 0.0
16 18:55 Calm 10.00 Fair CLR 86 71.6 62% 92 29.93 0.0
16 18:35 W 3 10.00 Fair CLR 87.8 69.8 55% 93 29.94 0.0
16 18:15 W 5 10.00 Fair CLR 87.8 69.8 55% 93 29.94 0.0
16 17:55 SW 5 10.00 Fair CLR 87.8 71.6 59% 94 29.94 0.0
16 17:35 NW 3 10.00 Fair CLR 87.8 71.6 59% 94 29.94 0.0
16 17:15 W 5 10.00 Fair CLR 87.8 71.6 59% 94 29.95 0.0
16 16:55 SW 5 10.00 Fair CLR 87.8 71.6 59% 94 29.95 0.0
16 16:35 W 5 10.00 Fair CLR 87.8 73.4 62% 96 29.95 0.0
16 16:15 SW 8 10.00 Fair CLR 86 71.6 62% 92 29.95 0.0
16 15:55 W 7 10.00 Partly Cloudy SCT026 SCT034 SCT040 86 71.6 62% 92 29.95 0.0
16 15:35 SW 8 10.00 Mostly Cloudy BKN026 BKN033 BKN040 86 71.6 62% 92 29.95 0.0
16 15:15 SW 8 10.00 Fair CLR 86 71.6 62% 92 29.95 0.0
16 14:55 SW 7 10.00 Fair CLR 86 71.6 62% 92 29.94 0.0
16 14:35 SW 6 10.00 Fair CLR 82.4 73.4 74% 88 29.94 0.0
16 14:15 SW 6 10.00 Fair CLR 82.4 71.6 70% 87 29.94 0.0
16 13:55 SW 6 10.00 Fair CLR 82.4 71.6 70% 87 29.93 0.0
16 13:35 S 7 10.00 Fair CLR 82.4 71.6 70% 87 29.93 0.0
16 13:15 SE 3 4.00 Partly Cloudy with Haze SCT002 82.4 69.8 66% 86 29.91 0.0
16 12:55 Calm 7.00 Fair CLR 82.4 69.8 66% 86 29.9 0.0
16 12:35 E 10 5.00 Fair with Haze CLR 82.4 69.8 66% 86 29.88 0.0
16 12:15 NE 12 7.00 Fair CLR 82.4 71.6 70% 87 29.87 0.0
16 11:55 N 9 10.00 Fair CLR 82.4 69.8 66% 86 29.89 0.0
16 11:35 NE 7 7.00 Fair CLR 82.4 69.8 66% 86 29.86 0.0
16 11:15 NE 6 10.00 Fair CLR 80.6 71.6 74% 85 29.87 0.0
16 10:55 NE 3 10.00 Partly Cloudy SCT034 SCT044 SCT120 78.8 68 70% 81 29.88 0.0
16 10:35 E 5 4.00 Light Rain SCT034 SCT044 BKN120 77 68 74% 79 29.89 0.0
16 10:15 N 3 10.00 Mostly Cloudy BKN110 77 68 74% 79 29.93 0.0
16 09:55 NW 9 G 17 10.00 Mostly Cloudy BKN110 78.8 68 70% 81 29.94 0.0
16 09:35 NW 12 G 21 10.00 Thunderstorm in Vicinity SCT025 SCT042 OVC110 78.8 68 70% 81 29.95 0.0
16 09:15 NW 13 G 20 10.00 Overcast BKN025 BKN030 OVC110 80.6 71.6 74% 85 29.94 0.0
16 08:55 W 12 G 22 10.00 Mostly Cloudy BKN029 BKN036 BKN042 80.6 71.6 74% 85 29.93 0.0
16 08:35 SW 6 10.00 Fair CLR 80.6 71.6 74% 85 29.89 0.0
16 08:15 W 6 10.00 Partly Cloudy SCT120 80.6 71.6 74% 85 29.87 0.0
16 07:55 W 7 10.00 Fair CLR 80.6 71.6 74% 85 29.87 0.0
16 07:35 SW 5 10.00 Fair CLR 78.8 71.6 79% 82 29.85 0.0
16 07:15 SW 3 10.00 Fair CLR 78.8 71.6 79% 82 29.83 0.0
16 06:55 Calm 10.00 Fair CLR 77 71.6 83% 78 29.82 0.0
16 06:35 SW 5 10.00 Fair CLR 78.8 69.8 74% 81 29.81 0.0
16 06:15 Calm 10.00 Fair CLR 78.8 71.6 79% 82 29.81 0.0
16 05:55 Calm 10.00 Fair CLR 78.8 71.6 79% 82 29.81 0.0
16 05:35 Calm 10.00 Fair CLR 78.8 71.6 79% 82 29.8 0.0
16 05:15 Calm 10.00 Fair CLR 78.8 71.6 79% 82 29.81 0.0
16 04:55 S 3 10.00 Fair CLR 80.6 71.6 74% 85 29.81 0.0
16 04:35 SW 3 10.00 Fair CLR 80.6 71.6 74% 85 29.81 0.0
16 04:15 Calm 10.00 Fair CLR 80.6 71.6 74% 85 29.8 0.0
16 03:55 SW 3 10.00 Fair CLR 80.6 71.6 74% 85 29.8 0.0
16 03:35 Calm 10.00 Fair CLR 80.6 71.6 74% 85 29.81 0.0
16 03:15 SW 5 10.00 Fair CLR 80.6 71.6 74% 85 29.81 0.0
16 02:55 SW 5 10.00 Fair CLR 82.4 71.6 70% 87 29.81 0.0
16 02:35 SW 6 10.00 Fair CLR 82.4 71.6 70% 87 29.81 0.0
16 02:15 SW 6 10.00 Fair CLR 82.4 71.6 70% 87 29.81 0.0
16 01:55 SW 7 10.00 Fair CLR 84.2 71.6 66% 90 29.81 0.0
16 01:35 SW 7 10.00 Fair CLR 84.2 71.6 66% 90 29.82 0.0
16 01:15 SW 7 10.00 Fair CLR 84.2 71.6 66% 90 29.82 0.0
16 00:55 SW 8 10.00 Fair CLR 84.2 71.6 66% 90 29.82 0.0
16 00:35 SW 7 10.00 Fair CLR 84.2 71.6 66% 90 29.83 0.0
16 00:15 SW 8 10.00 Fair CLR 84.2 73.4 70% 91 29.82 0.0
15 23:55 SW 8 10.00 Fair CLR 86 73.4 66% 93 29.82 0.0
15 23:35 SW 7 10.00 Fair CLR 86 73.4 66% 93 29.82 0.0
15 23:15 SW 8 10.00 Fair CLR 86 73.4 66% 93 29.82 0.0
15 22:55 SW 10 10.00 Fair CLR 86 73.4 66% 93 29.82 0.0
15 22:35 S 7 10.00 Fair CLR 86 73.4 66% 93 29.82 0.0
15 22:15 S 7 10.00 Fair CLR 86 73.4 66% 93 29.81 0.0
15 21:55 S 6 10.00 Fair CLR 86 73.4 66% 93 29.81 0.0
15 21:35 S 6 10.00 Fair CLR 87.8 73.4 62% 96 29.8 0.0
15 21:15 S 5 10.00 Fair CLR 87.8 73.4 62% 96 29.79 0.0
15 20:55 S 3 10.00 Fair CLR 87.8 73.4 62% 96 29.79 0.0
15 20:35 S 3 10.00 Fair CLR 87.8 73.4 62% 96 29.78 0.0
15 20:15 SW 7 10.00 Fair CLR 89.6 73.4 59% 98 29.78 0.0
15 19:55 SW 7 10.00 Fair CLR 89.6 75.2 63% 100 29.77 0.0
15 19:35 SW 6 10.00 Fair CLR 91.4 73.4 56% 100 29.77 0.0
15 19:15 SW 9 10.00 Fair CLR 91.4 73.4 56% 100 29.77 0.0
15 18:55 S 8 10.00 Fair CLR 93.2 73.4 53% 103 29.77 0.0
15 18:35 SW 9 10.00 Fair CLR 95 73.4 50% 105 29.78 0.0
15 18:15 SW 10 10.00 Fair CLR 95 73.4 50% 105 29.79 0.0
15 17:55 SW 12 G 16 10.00 Fair CLR 95 73.4 50% 105 29.79 0.0
15 17:35 SW 9 G 16 10.00 Fair CLR 96.8 73.4 47% 107 29.8 0.0
15 17:15 SW 13 G 18 10.00 Fair CLR 96.8 73.4 47% 107 29.81 0.0
15 16:55 SW 10 G 16 10.00 Fair CLR 96.8 73.4 47% 107 29.82 0.0
15 16:35 SW 12 10.00 Fair CLR 96.8 73.4 47% 107 29.83 0.0
15 16:15 SW 10 10.00 Fair CLR 96.8 73.4 47% 107 29.84 0.0
15 15:55 SW 12 G 18 10.00 Fair CLR 96.8 73.4 47% 107 29.84 0.0
15 15:35 SW 10 G 18 10.00 Fair CLR 96.8 73.4 47% 107 29.85 0.0
15 15:15 SW 12 G 20 10.00 Fair CLR 96.8 73.4 47% 107 29.86 0.0
15 14:55 SW 9 G 18 10.00 Fair CLR 96.8 73.4 47% 107 29.86 0.0
15 14:35 SW 13 G 16 10.00 Fair CLR 95 73.4 50% 105 29.86 0.0
15 14:15 SW 12 G 16 10.00 Fair CLR 95 77 56% 110 29.87 0.0
15 13:55 SW 10 G 16 10.00 Fair CLR 95 75.2 53% 107 29.87 0.0
15 13:35 S 12 10.00 Fair CLR 93.2 75.2 56% 105 29.88 0.0
15 13:15 S 9 10.00 Fair CLR 93.2 75.2 56% 105 29.88 0.0
15 12:55 S 10 G 18 10.00 Fair CLR 91.4 73.4 56% 100 29.88 0.0
15 12:35 SW 14 G 18 10.00 Fair CLR 91.4 73.4 56% 100 29.88 0.0
15 12:15 SW 15 G 18 10.00 Fair CLR 91.4 73.4 56% 100 29.88 0.0
15 11:55 SW 13 G 16 10.00 Fair CLR 89.6 73.4 59% 98 29.89 0.0
15 11:35 S 10 G 18 10.00 Fair CLR 89.6 73.4 59% 98 29.9 0.0
15 11:15 S 8 10.00 Fair CLR 89.6 73.4 59% 98 29.9 0.0
15 10:55 S 8 10.00 Fair CLR 87.8 73.4 62% 96 29.91 0.0
15 10:35 SW 10 G 17 10.00 Fair CLR 87.8 73.4 62% 96 29.91 0.0
15 10:15 SW 13 10.00 Fair CLR 87.8 71.6 59% 94 29.92 0.0
15 09:55 SW 9 10.00 Fair CLR 86 73.4 66% 93 29.92 0.0
15 09:35 SW 10 10.00 Fair CLR 84.2 71.6 66% 90 29.93 0.0
15 09:15 SW 8 10.00 Fair CLR 84.2 73.4 70% 91 29.93 0.0
15 08:55 SW 10 G 16 10.00 Fair CLR 82.4 71.6 70% 87 29.93 0.0
15 08:35 SW 10 10.00 Fair CLR 82.4 71.6 70% 87 29.93 0.0
15 08:15 SW 7 10.00 Fair CLR 80.6 71.6 74% 85 29.93 0.0
15 07:55 SW 7 10.00 Fair CLR 80.6 71.6 74% 85 29.93 0.0
15 07:35 SW 6 10.00 Fair CLR 78.8 71.6 79% 82 29.93 0.0
15 07:15 S 6 10.00 Fair CLR 78.8 71.6 79% 82 29.93 0.0
15 06:55 S 3 10.00 Fair CLR 77 71.6 83% 78 29.93 0.0
15 06:35 S 5 10.00 Fair CLR 75.2 71.6 89% 75 29.93 0.0
15 06:15 S 5 10.00 Fair CLR 75.2 71.6 89% 75 29.94 0.0
15 05:55 S 5 10.00 Fair CLR 75.2 71.6 89% 75 29.94 0.0
15 05:35 Calm 10.00 Fair CLR 77 71.6 83% 78 29.93 0.0
15 05:15 S 3 10.00 Fair CLR 77 71.6 83% 78 29.93 0.0
15 04:55 S 3 10.00 Fair CLR 77 71.6 83% 78 29.93 0.0
15 04:35 S 3 10.00 Fair CLR 77 71.6 83% 78 29.93 0.0
15 04:15 S 3 10.00 Fair CLR 77 71.6 83% 78 29.93 0.0
15 03:55 S 3 10.00 Fair CLR 78.8 71.6 79% 82 29.93 0.0
15 03:35 Calm 10.00 Fair CLR 78.8 71.6 79% 82 29.93 0.0
15 03:15 S 5 10.00 Fair CLR 78.8 71.6 79% 82 29.94 0.0
Date Time (cdt) Wind (mph) Vis. (mi.) Weather Sky Cond. Air Dwpt Max. Min. Relative Humidity Wind Chill (°F) Heat Index (°F) altimeter (in) sea level (mb) 1 hr 3 hr 6 hr
6 hour
Temperature (ºF) Pressure Precipitation (in)